FW8576 Weather Reports


time (UTC)temp
C
wind
direction
speed
KPH
gust
KPH
rain 1hr
cm
rain 24hr
cm
rain mn
cm
humidity
%
barometer
mb
20260509045243 16 114 0.0 3.2 0.00 0.00 0.00 92 1017.8
20260509044740 16 165 0.0 0.0 0.00 0.00 0.00 92 1018.6
20260509044238 16 352 0.0 0.0 0.00 0.00 0.00 92 1018.4
20260509043734 16 0 0.0 3.2 0.00 0.00 0.00 92 1018.5
20260509043230 16 203 0.0 0.0 0.00 0.00 0.00 92 1018.5
20260509042726 16 203 0.0 0.0 0.00 0.00 0.00 92 1018.5
20260509042223 16 151 0.0 0.0 0.00 0.00 0.00 92 1018.4
20260509041719 16 151 0.0 0.0 0.00 0.00 0.00 92 1018.7
20260509041217 16 151 0.0 0.0 0.00 0.00 0.00 91 1018.7
20260509040715 16 151 0.0 0.0 0.00 0.00 0.00 91 1018.9
20260509040212 16 151 0.0 1.6 0.00 0.00 0.00 90 1018.4
20260509035708 16 352 0.0 0.0 0.00 0.00 0.00 90 1018.8
20260509035205 16 180 0.0 0.0 0.00 0.00 0.00 89 1018.7
20260509034702 16 188 0.0 0.0 0.00 0.00 0.00 89 1018.8
20260509034200 17 157 0.0 0.0 0.00 0.00 0.00 88 1018.7
20260509033657 17 157 0.0 0.0 0.00 0.00 0.00 88 1018.7
20260509033154 17 145 0.0 3.2 0.00 0.00 0.00 87 1018.7
20260509032651 16 0 0.0 0.0 0.00 0.00 0.00 86 1018.9
20260509032148 16 0 0.0 0.0 0.00 0.00 0.00 86 1018.9
20260509031645 17 0 0.0 0.0 0.00 0.00 0.00 86 1019.0
20260509031142 17 0 0.0 0.0 0.00 0.00 0.00 86 1019.1
20260509030641 17 0 0.0 3.2 0.00 0.00 0.00 86 1019.1
20260509030138 17 0 0.0 0.0 0.00 0.00 0.00 86 1018.9
20260509025634 17 0 0.0 0.0 0.00 0.00 0.00 85 1018.9
20260509025130 17 0 0.0 1.6 0.00 0.00 0.00 85 1018.7
20260509024625 17 0 0.0 0.0 0.00 0.00 0.00 85 1018.7
20260509024121 17 99 0.0 0.0 0.00 0.00 0.00 85 1018.5
20260509023620 17 99 0.0 0.0 0.00 0.00 0.00 84 1018.6
20260509023116 17 103 0.0 0.0 0.00 0.00 0.00 83 1018.6
20260509022612 18 81 0.0 0.0 0.00 0.00 0.00 82 1018.7
20260509022111 18 81 0.0 0.0 0.00 0.00 0.00 81 1018.7
20260509021607 17 81 0.0 0.0 0.00 0.00 0.00 80 1018.9
20260509021104 17 81 0.0 0.0 0.00 0.00 0.00 80 1018.8
20260509020603 17 81 0.0 0.0 0.00 0.00 0.00 80 1018.9
20260509020059 17 81 0.0 0.0 0.00 0.00 0.00 79 1019.1
20260509015558 18 81 0.0 0.0 0.00 0.00 0.00 79 1019.0
20260509015055 18 81 0.0 0.0 0.00 0.00 0.00 79 1018.9
20260509014551 18 81 0.0 0.0 0.00 0.00 0.00 78 1019.0
20260509014048 18 81 0.0 0.0 0.00 0.00 0.00 77 1018.9
20260509013545 18 81 0.0 0.0 0.00 0.00 0.00 77 1018.9
20260509013040 18 81 0.0 0.0 0.00 0.00 0.00 76 1018.6
20260509012537 18 81 0.0 0.0 0.00 0.00 0.00 75 1018.8
20260509012034 18 81 0.0 0.0 0.00 0.00 0.00 75 1019.0
20260509011532 18 98 0.0 3.2 0.00 0.00 0.00 75 1018.6
20260509011029 18 172 0.0 0.0 0.00 0.00 0.00 75 1018.9
20260509010527 18 172 0.0 0.0 0.00 0.00 0.00 74 1018.8
20260509010023 18 173 0.0 1.6 0.00 0.00 0.00 73 1018.7
20260509005521 18 8 0.0 0.0 0.00 0.00 0.00 73 1018.8
20260509005021 18 352 0.0 0.0 0.00 0.00 0.00 73 1018.6
20260509004518 19 188 0.0 0.0 0.00 0.00 0.00 72 1018.4
20260509004015 19 188 0.0 0.0 0.00 0.00 0.00 71 1018.5
20260509003514 20 188 0.0 0.0 0.00 0.00 0.00 70 1018.4
20260509003010 20 180 0.0 3.2 0.00 0.00 0.00 69 1018.2
20260509002508 20 203 1.6 1.6 0.00 0.00 0.00 69 1018.5
20260509002005 20 206 0.0 3.2 0.00 0.00 0.00 68 1018.7
20260509001502 20 180 0.0 3.2 0.00 0.00 0.00 68 1018.5
20260509000958 20 180 3.2 3.2 0.00 0.00 0.00 66 1018.4
20260509000457 20 250 0.0 4.8 0.00 0.00 0.00 67 1018.8
20260508235952 20 261 0.0 3.2 0.00 0.00 0.00 68 1018.2
20260508235450 20 168 0.0 1.6 0.00 0.00 0.00 67 1018.0
20260508234946 20 228 0.0 3.2 0.00 0.00 0.00 67 1018.0
20260508234443 20 176 0.0 3.2 0.00 0.00 0.00 66 1017.8
20260508233941 20 200 0.0 3.2 0.00 0.00 0.00 66 1018.0
20260508233440 20 143 3.2 4.8 0.00 0.00 0.00 65 1018.1
20260508232936 20 188 0.0 4.8 0.00 0.00 0.00 64 1018.1
20260508232434 20 150 3.2 3.2 0.00 0.00 0.00 65 1018.2
20260508231931 21 192 3.2 6.4 0.00 0.00 0.00 64 1018.2
20260508231428 20 209 0.0 4.8 0.00 0.00 0.00 64 1018.1
20260508230925 21 259 3.2 4.8 0.00 0.00 0.00 64 1018.4
20260508230421 21 262 1.6 3.2 0.00 0.00 0.00 63 1018.3
20260508225918 21 237 0.0 3.2 0.00 0.00 0.00 63 1018.2
20260508225415 21 90 0.0 3.2 0.00 0.00 0.00 61 1018.0
20260508224913 21 98 1.6 6.4 0.00 0.00 0.00 61 1018.1
20260508224410 21 151 3.2 4.8 0.00 0.00 0.00 61 1018.1
20260508223907 21 147 4.8 6.4 0.00 0.00 0.00 59 1017.9
20260508223405 21 127 0.0 8.0 0.00 0.00 0.00 59 1018.0
20260508222902 21 153 0.0 4.8 0.00 0.00 0.00 59 1018.0
20260508222359 21 180 1.6 8.0 0.00 0.00 0.00 59 1018.1
20260508221856 21 106 1.6 6.4 0.00 0.00 0.00 59 1018.1
20260508221351 21 216 0.0 4.8 0.00 0.00 0.00 60 1018.2
20260508220848 21 225 3.2 8.0 0.00 0.00 0.00 59 1018.0
20260508220344 22 174 4.8 6.4 0.00 0.00 0.00 59 1018.2
20260508215841 22 191 0.0 8.0 0.00 0.00 0.00 57 1018.4
20260508215338 22 142 3.2 6.4 0.00 0.00 0.00 57 1018.4
20260508214835 22 196 6.4 6.4 0.00 0.00 0.00 57 1018.0
20260508214332 22 147 4.8 8.0 0.00 0.00 0.00 57 1018.2
20260508213828 22 229 4.8 8.0 0.00 0.00 0.00 56 1018.2
20260508213325 22 206 1.6 8.0 0.00 0.00 0.00 56 1018.0
20260508212821 22 144 4.8 6.4 0.00 0.00 0.00 55 1018.1
20260508212318 22 174 0.0 4.8 0.00 0.00 0.00 55 1018.1
20260508211814 22 151 0.0 6.4 0.00 0.00 0.00 55 1018.3
20260508211309 22 90 0.0 4.8 0.00 0.00 0.00 53 1017.9
20260508210808 22 180 4.8 6.4 0.00 0.00 0.00 52 1018.1
20260508210304 23 192 0.0 3.2 0.00 0.00 0.00 55 1018.0
20260508205801 23 229 4.8 9.7 0.00 0.00 0.00 54 1018.2
20260508205257 23 180 0.0 4.8 0.00 0.00 0.00 53 1018.1
20260508204753 23 221 0.0 8.0 0.00 0.00 0.00 53 1018.0
20260508204250 23 223 6.4 11.3 0.00 0.00 0.00 53 1017.9
20260508203746 23 240 0.0 6.4 0.00 0.00 0.00 51 1018.3
20260508203243 23 228 3.2 11.3 0.00 0.00 0.00 51 1017.9
20260508202738 24 220 0.0 8.0 0.00 0.00 0.00 51 1018.3
20260508202236 23 270 0.0 6.4 0.00 0.00 0.00 52 1018.1
20260508201733 23 202 3.2 4.8 0.00 0.00 0.00 50 1018.3
20260508201229 23 197 4.8 8.0 0.00 0.00 0.00 52 1018.3
20260508200726 23 33 3.2 4.8 0.00 0.00 0.00 50 1018.5
20260508200222 22 259 3.2 4.8 0.00 0.00 0.00 50 1018.6
20260508195719 23 225 6.4 9.7 0.00 0.00 0.00 49 1018.5
20260508195215 23 192 4.8 11.3 0.00 0.00 0.00 53 1018.5
20260508194712 24 203 0.0 12.9 0.00 0.00 0.00 51 1018.6
20260508194209 24 245 0.0 6.4 0.00 0.00 0.00 49 1018.6
20260508193706 24 237 12.9 16.1 0.00 0.00 0.00 48 1018.7
20260508193203 23 203 1.6 8.0 0.00 0.00 0.00 48 1019.1
20260508192659 24 234 0.0 3.2 0.00 0.00 0.00 48 1018.9
20260508192156 24 19 0.0 4.8 0.00 0.00 0.00 48 1018.9
20260508191654 25 170 4.8 6.4 0.00 0.00 0.00 51 1018.7
20260508191150 24 12 0.0 9.7 0.00 0.00 0.00 49 1019.1
20260508190648 23 142 3.2 8.0 0.00 0.00 0.00 50 1019.2
20260508190144 23 97 4.8 11.3 0.00 0.00 0.00 53 1019.1
20260508185641 24 253 0.0 9.7 0.00 0.00 0.00 54 1019.0
20260508185138 23 247 3.2 8.0 0.00 0.00 0.00 50 1019.1
20260508184635 23 69 0.0 3.2 0.00 0.00 0.00 52 1019.5
20260508184132 22 192 4.8 6.4 0.00 0.00 0.00 51 1019.9
20260508183629 23 246 4.8 12.9 0.00 0.00 0.00 52 1019.5
20260508183125 23 297 3.2 4.8 0.00 0.00 0.00 50 1019.7
20260508182621 23 253 4.8 8.0 0.00 0.00 0.00 54 1020.0
20260508182118 23 180 0.0 14.5 0.00 0.00 0.00 54 1019.9
20260508181613 22 199 3.2 6.4 0.00 0.00 0.00 52 1020.0
20260508181111 22 270 3.2 6.4 0.00 0.00 0.00 55 1019.9
20260508180607 23 152 9.7 9.7 0.00 0.00 0.00 53 1019.9
20260508180104 23 166 8.0 16.1 0.00 0.00 0.00 51 1019.9
20260508175601 24 12 0.0 3.2 0.00 0.00 0.00 53 1020.1
20260508175058 23 149 0.0 12.9 0.00 0.00 0.00 51 1020.3
20260508174555 23 209 9.7 11.3 0.00 0.00 0.00 49 1020.0
20260508174052 22 321 4.8 14.5 0.00 0.00 0.00 51 1020.0
20260508173549 23 285 1.6 3.2 0.00 0.00 0.00 50 1019.9
20260508173045 22 221 3.2 8.0 0.00 0.00 0.00 52 1020.1
20260508172542 22 67 0.0 8.0 0.00 0.00 0.00 50 1020.2
20260508172039 23 150 4.8 6.4 0.00 0.00 0.00 51 1020.5
20260508171535 22 200 1.6 8.0 0.00 0.00 0.00 52 1020.8
20260508171032 22 228 3.2 8.0 0.00 0.00 0.00 53 1020.9
20260508170529 22 232 6.4 8.0 0.00 0.00 0.00 51 1020.9
20260508170026 22 283 4.8 9.7 0.00 0.00 0.00 50 1020.8
20260508165523 22 254 3.2 6.4 0.00 0.00 0.00 52 1020.8
20260508165020 23 90 6.4 6.4 0.00 0.00 0.00 51 1020.9
20260508164517 22 320 3.2 14.5 0.00 0.00 0.00 54 1021.2
20260508164014 22 120 1.6 4.8 0.00 0.00 0.00 52 1021.1
20260508163511 21 215 1.6 8.0 0.00 0.00 0.00 53 1021.8
20260508163007 22 188 0.0 6.4 0.00 0.00 0.00 53 1021.3
20260508162504 22 66 3.2 4.8 0.00 0.00 0.00 53 1021.7
20260508162001 21 66 4.8 8.0 0.00 0.00 0.00 52 1021.6
20260508161458 21 62 0.0 8.0 0.00 0.00 0.00 52 1021.5
20260508160955 21 59 0.0 4.8 0.00 0.00 0.00 51 1021.5
20260508160454 21 180 1.6 8.0 0.00 0.00 0.00 53 1021.6
20260508155950 21 66 0.0 4.8 0.00 0.00 0.00 53 1021.7
20260508155447 21 23 1.6 17.7 0.00 0.00 0.00 54 1021.8
20260508154944 21 102 4.8 12.9 0.00 0.00 0.00 53 1021.7
20260508154442 21 137 6.4 9.7 0.00 0.00 0.00 53 1021.6
20260508153938 21 225 4.8 6.4 0.00 0.00 0.00 53 1021.7
20260508153435 21 282 3.2 9.7 0.00 0.00 0.00 51 1021.7
20260508152931 21 70 3.2 3.2 0.00 0.00 0.00 53 1021.9
20260508152428 21 108 8.0 8.0 0.00 0.00 0.00 51 1021.9
20260508151925 21 145 1.6 4.8 0.00 0.00 0.00 52 1022.1
20260508151422 20 164 4.8 9.7 0.00 0.00 0.00 53 1021.9
20260508150918 21 154 0.0 9.7 0.00 0.00 0.00 53 1021.9
20260508150415 21 129 4.8 9.7 0.00 0.00 0.00 53 1022.1
20260508145910 21 70 6.4 14.5 0.00 0.00 0.00 53 1021.9
20260508145407 21 97 1.6 11.3 0.00 0.00 0.00 55 1022.1
20260508144904 21 63 0.0 11.3 0.00 0.00 0.00 53 1022.0
20260508144402 21 125 3.2 11.3 0.00 0.00 0.00 55 1022.2
20260508143859 21 113 4.8 6.4 0.00 0.00 0.00 53 1022.3
20260508143356 21 64 4.8 8.0 0.00 0.00 0.00 54 1022.2
20260508142853 20 90 0.0 8.0 0.00 0.00 0.00 53 1022.1
20260508142350 21 180 4.8 8.0 0.00 0.00 0.00 55 1022.2
20260508141846 21 42 4.8 9.7 0.00 0.00 0.00 58 1022.1
20260508141343 20 156 3.2 8.0 0.00 0.00 0.00 57 1022.2
20260508140841 20 117 3.2 9.7 0.00 0.00 0.00 58 1022.2
20260508140337 20 37 3.2 14.5 0.00 0.00 0.00 58 1022.1
20260508135833 20 90 9.7 11.3 0.00 0.00 0.00 57 1022.3
20260508135330 20 74 4.8 8.0 0.00 0.00 0.00 58 1022.5
20260508134826 20 90 8.0 9.7 0.00 0.00 0.00 59 1022.4
20260508134323 20 134 12.9 12.9 0.00 0.00 0.00 61 1022.3
20260508133819 20 186 4.8 6.4 0.00 0.00 0.00 65 1022.2
20260508133317 20 108 4.8 9.7 0.00 0.00 0.00 63 1022.2
20260508132814 19 148 3.2 8.0 0.00 0.00 0.00 68 1022.3
20260508132312 19 63 0.0 8.0 0.00 0.00 0.00 73 1022.2
20260508131808 18 159 0.0 8.0 0.00 0.00 0.00 72 1022.1
20260508131304 18 79 3.2 9.7 0.00 0.00 0.00 73 1021.9
20260508130800 18 81 3.2 8.0 0.00 0.00 0.00 74 1022.0
20260508130258 18 85 0.0 4.8 0.00 0.00 0.00 76 1021.6
20260508125754 17 120 0.0 9.7 0.00 0.00 0.00 75 1021.6
20260508125250 18 180 0.0 6.4 0.00 0.00 0.00 77 1021.9
20260508124749 18 155 0.0 6.4 0.00 0.00 0.00 80 1021.6
20260508124245 18 79 4.8 4.8 0.00 0.00 0.00 80 1021.6
20260508123743 18 90 0.0 6.4 0.00 0.00 0.00 79 1021.7
20260508123241 18 19 3.2 3.2 0.00 0.00 0.00 81 1021.2
20260508122737 18 99 0.0 4.8 0.00 0.00 0.00 85 1021.5
20260508122234 17 74 0.0 3.2 0.00 0.00 0.00 88 1021.5
20260508121731 17 66 0.0 0.0 0.00 0.00 0.00 92 1021.3
20260508121230 16 79 0.0 4.8 0.00 0.00 0.00 94 1021.2
20260508120727 16 90 0.0 0.0 0.00 0.00 0.00 95 1021.3
20260508120225 15 75 0.0 0.0 0.00 0.00 0.00 96 1021.0
20260508115722 15 75 0.0 0.0 0.00 0.00 0.00 97 1020.9
20260508115220 14 90 0.0 3.2 0.00 0.00 0.00 97 1020.5
20260508114716 13 77 1.6 3.2 0.00 0.00 0.00 97 1020.8
20260508114213 13 81 0.0 1.6 0.00 0.00 0.00 97 1020.8
20260508113709 13 0 0.0 0.0 0.00 0.00 0.00 97 1020.6
20260508113208 13 8 0.0 0.0 0.00 0.00 0.00 98 1020.4
20260508112703 13 57 0.0 3.2 0.00 0.00 0.00 98 1020.4
20260508112201 12 352 0.0 0.0 0.00 0.00 0.00 98 1020.4
20260508111657 12 352 0.0 0.0 0.00 0.00 0.00 97 1020.3
20260508111155 12 352 0.0 0.0 0.00 0.00 0.00 97 1020.0
20260508110652 12 8 0.0 0.0 0.00 0.00 0.00 97 1019.9
20260508110149 12 0 0.0 0.0 0.00 0.00 0.00 97 1020.1
20260508105643 12 0 0.0 1.6 0.00 0.00 0.00 97 1019.8
20260508105141 12 353 0.0 1.6 0.00 0.00 0.00 97 1020.1
20260508104638 12 352 0.0 0.0 0.00 0.00 0.00 97 1019.7
20260508104135 12 0 0.0 0.0 0.00 0.00 0.00 97 1019.7
20260508103632 12 0 0.0 0.0 0.00 0.00 0.00 97 1019.4
20260508103129 12 337 0.0 0.0 0.00 0.00 0.00 97 1019.5
20260508102626 12 0 0.0 1.6 0.00 0.00 0.00 96 1019.6
20260508102124 12 0 0.0 0.0 0.00 0.00 0.00 96 1019.4
20260508101621 12 0 0.0 0.0 0.00 0.00 0.00 96 1019.2
20260508101118 12 0 0.0 0.0 0.00 0.00 0.00 96 1019.3
20260508100616 12 0 0.0 0.0 0.00 0.00 0.00 96 1019.3
20260508100114 12 0 0.0 0.0 0.00 0.00 0.00 96 1019.2
20260508095610 13 8 0.0 0.0 0.00 0.00 0.00 95 1019.3
20260508095107 13 0 0.0 0.0 0.00 0.00 0.00 95 1019.0
20260508094604 13 0 0.0 1.6 0.00 0.00 0.00 95 1018.8
20260508094101 13 0 0.0 1.6 0.00 0.00 0.00 95 1018.9
20260508093558 12 0 0.0 0.0 0.00 0.00 0.00 95 1018.7
20260508093056 12 0 0.0 0.0 0.00 0.00 0.00 95 1018.6
20260508092553 13 0 0.0 0.0 0.00 0.00 0.00 95 1018.6
20260508092052 13 342 0.0 1.6 0.00 0.00 0.00 95 1018.6
20260508091549 13 81 0.0 0.0 0.00 0.00 0.00 95 1018.5
20260508091045 13 0 0.0 1.6 0.00 0.00 0.00 95 1018.7
20260508090543 13 0 0.0 0.0 0.00 0.00 0.00 95 1018.5
20260508090039 13 0 0.0 0.0 0.00 0.00 0.00 95 1018.2
20260508085536 13 0 0.0 1.6 0.00 0.00 0.00 95 1018.1
20260508085033 12 14 0.0 1.6 0.00 0.00 0.00 94 1018.2
20260508084530 13 0 0.0 0.0 0.00 0.00 0.00 94 1018.2
20260508084028 13 8 0.0 1.6 0.00 0.00 0.00 94 1018.1
20260508083525 13 0 0.0 0.0 0.00 0.00 0.00 94 1018.3
20260508083021 13 7 0.0 1.6 0.00 0.00 0.00 94 1018.0
20260508082517 13 0 0.0 1.6 0.00 0.00 0.00 93 1018.0
20260508082015 13 66 0.0 1.6 0.00 0.00 0.00 93 1018.3
20260508081512 13 81 0.0 3.2 0.00 0.00 0.00 92 1018.0
20260508081008 13 82 0.0 0.0 0.00 0.00 0.00 92 1017.9
20260508080506 13 82 0.0 0.0 0.00 0.00 0.00 92 1017.8
20260508080003 13 82 0.0 0.0 0.00 0.00 0.00 92 1018.1
20260508075459 13 82 0.0 1.6 0.00 0.00 0.00 92 1017.9
20260508074957 13 82 0.0 3.2 0.00 0.00 0.00 91 1018.1
20260508074455 13 81 0.0 0.0 0.00 0.00 0.00 91 1018.2
20260508073951 13 75 0.0 1.6 0.00 0.00 0.00 91 1018.0
20260508073449 13 74 0.0 1.6 0.00 0.00 0.00 91 1018.1
20260508072946 13 29 0.0 1.6 0.00 0.00 0.00 91 1018.2
20260508072442 13 99 0.0 1.6 0.00 0.00 0.00 90 1018.1
20260508071939 13 90 0.0 1.6 0.00 0.00 0.00 90 1018.3
20260508071438 13 126 0.0 1.6 0.00 0.00 0.00 89 1017.9
20260508070935 13 90 0.0 1.6 0.00 0.00 0.00 89 1018.1
20260508070432 13 90 0.0 0.0 0.00 0.00 0.00 89 1018.1
20260508065930 13 90 0.0 0.0 0.00 0.00 0.00 88 1018.3
20260508065428 13 82 0.0 0.0 0.00 0.00 0.00 88 1018.1
20260508064926 14 209 0.0 0.0 0.00 0.00 0.00 88 1018.1
20260508064423 14 215 0.0 0.0 0.00 0.00 0.00 88 1017.8
20260508063921 14 215 0.0 1.6 0.00 0.00 0.00 87 1018.1
20260508063418 14 262 0.0 1.6 0.00 0.00 0.00 87 1018.1
20260508062915 14 254 0.0 0.0 0.00 0.00 0.00 86 1017.9
20260508062413 14 254 0.0 1.6 0.00 0.00 0.00 86 1017.8
20260508061909 14 253 0.0 3.2 0.00 0.00 0.00 86 1017.9
20260508061407 14 270 0.0 1.6 0.00 0.00 0.00 86 1018.0
20260508060903 14 352 0.0 0.0 0.00 0.00 0.00 86 1018.1
20260508060401 14 90 0.0 0.0 0.00 0.00 0.00 85 1018.1
20260508055901 15 90 0.0 1.6 0.00 0.00 0.00 85 1018.4
20260508055359 15 188 0.0 0.0 0.00 0.00 0.00 85 1018.3
20260508054855 15 81 0.0 0.0 0.00 0.00 0.00 84 1018.2
20260508054353 15 294 0.0 0.0 0.00 0.00 0.00 84 1018.2
20260508053849 15 75 0.0 0.0 0.00 0.00 0.00 83 1018.0
20260508053347 15 74 0.0 3.2 0.00 0.00 0.00 83 1018.0
20260508052844 15 99 0.0 0.0 0.00 0.00 0.00 83 1018.3
20260508052342 15 99 0.0 0.0 0.00 0.00 0.00 82 1018.0
20260508051837 15 99 0.0 0.0 0.00 0.00 0.00 81 1018.0
20260508051333 15 77 3.2 3.2 0.00 0.00 0.00 81 1018.0
20260508050829 16 90 0.0 1.6 0.00 0.00 0.00 80 1018.2
20260508050327 16 0 0.0 0.0 0.00 0.00 0.00 79 1018.0
20260508045822 16 79 3.2 3.2 0.00 0.00 0.00 79 1017.9